Regional Weather Roundup
Issued by NWS

Home | Current Version | Previous Version | Text Only | Print | Product List | Glossary Off
Versions: 1 2 3 4 5 6 7 8 9 10 11 12 13 14 15 16 17 18 19 20 21 22 23 24 25 26 27 28 29 30 31 32 33 34 35 36 37 38 39 40 41 42 43 44 45 46 47 48 49 50

019
ASUS44 KLIX 301705
RWRLA
LOUISIANA WEATHER ROUNDUP
NATIONAL WEATHER SERVICE NEW ORLEANS LA
1100 AM CST FRI JAN 30 2015

NOTE: "FAIR" INDICATES FEW OR NO CLOUDS BELOW 12,000 FEET WITH NO
      SIGNIFICANT WEATHER AND/OR OBSTRUCTIONS TO VISIBILITY.
      SKY/WX - SKY CONDITION AND SIGNIFICANT WEATHER.
      TMP - AIR TEMPERATURE.    DP   - DEWPOINT TEMPERATURE.
      RH  - RELATIVE HUMIDITY.  PRES - PRESSURE.
      HX  - HEAT INDEX.         WCI  - WIND CHILL INDEX.

*  THESE STATIONS ARE NOT NWS OR FAA STATIONS AND ARE NOT UNDER
   NWS QUALITY CONTROL.

LAZ040-048-061>063-065-066-069-301800-
SOUTHEAST LOUISIANA

CITY           SKY/WX    TMP DP  RH WIND       PRES   REMARKS
N.O. AUDUBON   NOT AVBL
N.O. INTL ARPT PTSUNNY   52  38  58 N14       30.41S
N.O. LAKEFRONT MOSUNNY   54  38  54 N14       30.41S
N.O. DOWNTOWN* NOT AVBL
SLIDELL        MOSUNNY   54  35  48 N12       30.39F
BATON ROUGE    PTSUNNY   51  32  48 NE10      30.42F
BOOTHVILLE     SUNNY     53  43  68 NE14G23   30.38S
BELLE CHASSE   CLOUDY    55  38  52 NE13G21   30.39S
BOGALUSA*        N/A     53  33  46 NE10      30.43F
GALLIANO*      MOSUNNY   57  42  57 N10G18    30.38F
NEW ROADS*     FAIR      51  33  50 NE6       30.43F
GONZALES*      FAIR      52  35  52 N9        30.41S
HAMMOND*       PTSUNNY   54  34  47 N8        30.43F
HOUMA*         SUNNY     55  39  54 N16G24    30.39R
PORT FOURCHON* SUNNY     54  45  71 NE21      30.41R

$$

LAZ041-044-053-054-301800-
SOUTHWEST LOUISIANA

CITY           SKY/WX    TMP DP  RH WIND       PRES   REMARKS
LAKE CHARLES   PTSUNNY   51  35  54 NE16      30.43S
LAFAYETTE      CLOUDY    51  35  54 NE13      30.42S
PATTERSON      MOSUNNY   54  37  54 NE15      30.41R
SALT POINT       N/A     55  39  54 NE8       30.37S
NEW IBERIA     PTSUNNY   52  35  52 NE17      30.42S
CHENAULT AIRPK MOSUNNY   48  34  57 NE10G18   30.43F

$$

LAZ027-028-301800-
CENTRAL LOUISIANA

CITY           SKY/WX    TMP DP  RH WIND       PRES   REMARKS
FORT POLK      PTSUNNY   48  33  56 NE12G22   30.44S
ALEXANDRIA INT PTSUNNY   49  31  49 NE10      30.46S
ALEXANDRIA     PTSUNNY   48  32  53 E8        30.47S

$$

LAZ001-002-301800-
NORTHWEST LOUISIANA

CITY           SKY/WX    TMP DP  RH WIND       PRES   REMARKS
SHREVEPORT     PTSUNNY   48  31  51 NE8       30.50S
BARKSDALE AFB  MOSUNNY   48  30  50 E3        30.51R
DTN SHREVEPORT MOSUNNY   47  29  49 E7        30.51S

$$

LAZ014-016-301800-
NORTHEAST LOUISIANA

CITY           SKY/WX    TMP DP  RH WIND       PRES   REMARKS
MONROE         SUNNY     48  33  56 NE16      30.51F
TALLULAH       SUNNY     50  32  50 N9        30.49F

$$




USA.gov is the U.S. government's official web portal to all federal, state and local government web resources and services.